Presure
126 126 119 132 133 129 126 134 123 124 121 135 92 141 108 130 136 147 113 128 130 154 169 168 179 193 189 187 219 135 139 143 130 142 148 135 128 158 180 183 148 155 157 154 163
140 118 124 114 132 132 126 89 143 134 118 85 95 97 116 132 131 139 151 161 146 121 157 167 161 166 196 190 173 234 255 237 146 130 129 139 131 97 114 126 168 150 147 150 155
129 124 101 122 124 124 119 128 92 99 113 114 131 79 102 110 118 117 110 152 139 148 114 151 157 167 176 198 188 161 269 257 241 210 159 127 143 144 105 136 110 141 144 117 150
135 125 135 111 112 128 124 114 123 88 112 137 121 113 98 98 117 107 127 129 139 158 121 157 146 143 165 181 214 197 208 258 249 237 213 202 118 155 108 109 146 150 114 138 131
121 129 150 128 119 109 113 124 121 118 121 122 141 101 96 102 99 106 101 126 99 158 164 133 167 161 144 172 188 178 203 203 259 252 234 222 213 190 144 147 144 144 149 139 147
143 133 137 137 126 120 125 126 133 102 125 90 111 129 142 97 96 106 99 102 110 125 140 116 141 142 168 166 176 200 177 189 197 256 246 231 217 213 211 172 160 150 148 148 148
117 140 130 148 123 133 113 118 109 135 96 108 121 123 90 126 147 96 109 99 103 100 134 147 157 133 164 170 177 182 199 171 193 200 245 243 232 222 217 211 206 167 161 136 138
117 133 134 144 132 133 114 127 131 128 123 111 107 129 125 119 124 127 96 130 90 103 95 141 148 118 158 163 172 162 187 171 165 207 194 230 234 232 226 220 216 208 208 181 163
120 123 131 130 140 119 121 121 125 131 127 125 108 107 130 107 128 107 113 112 119 110 130 118 140 146 152 125 155 175 160 187 171 160 190 186 190 204 221 221 220 220 218 215 217
142 131 135 147 114 123 144 144 123 131 133 133 123 116 126 134 119 123 95 120 97 103 103 121 115 131 120 152 113 152 142 158 182 175 156 157 189 176 179 189 193 191 199 202 202
133 141 122 120 118 113 133 133 120 126 131 120 134 104 122 126 91 125 92 129 100 130 100 117 122 137 113 136 150 127 133 140 161 177 178 164 162 157 210 182 176 182 183 182 184
141 134 148 136 134 141 126 126 142 141 118 126 142 125 102 105 130 136 144 98 127 105 125 126 108 124 132 140 145 145 131 157 112 170 175 173 167 158 163 166 205 219 209 188 177
140 114 132 132 132 118 136 138 122 143 134 121 122 135 128 133 118 135 123 118 117 111 139 118 107 111 139 138 134 154 138 144 167 178 170 170 175 169 159 166 165 163 161 165 179
126 145 120 145 116 130 126 119 127 130 128 130 117 145 141 134 109 110 133 133 115 120 132 120 141 141 136 124 132 140 117 136 128 169 176 172 153 168 166 168 169 168 166 164 159
126 123 141 122 144 142 140 138 128 120 128 153 145 117 135 128 141 130 124 123 117 129 104 115 134 130 143 114 130 117 133 112 101 130 164 123 163 165 159 164 163 158 164 160 164
154 148 135 121 125 122 124 111 116 133 143 138 134 124 143 129 137 129 131 137 137 115 109 135 122 132 137 125 138 122 130 128 111 148 108 124 171 158 165 159 161 161 161 165 162
198 199 180 163 134 133 182 126 125 140 138 130 131 140 119 148 132 121 143 134 140 122 108 140 144 123 136 114 114 118 127 107 131 134 111 152 121 79 171 160 156 161 155 156 156
194 191 185 144 127 192 142 160 203 163 129 150 123 141 130 147 149 132 140 128 119 133 108 141 139 139 141 137 113 112 129 115 123 122 119 144 168 175 160 170 167 140 154 154 156
190 187 191 188 178 147 140 142 185 159 143 131 135 139 134 144 127 140 114 145 145 147 128 145 147 141 135 97 120 92 117 123 125 118 117 128 120 167 171 162 166 172 150 148 150
181 187 188 189 187 179 180 177 153 143 184 145 139 125 138 139 134 137 136 129 147 146 137 146 126 129 145 147 96 115 115 119 134 101 121 108 139 125 174 176 177 181 164 151 145
259 184 181 177 178 174 169 173 155 180 179 187 165 142 131 129 138 138 134 135 142 136 142 142 139 119 115 97 137 123 122 113 114 118 108 123 126 115 158 135 177 179 183 155 154
302 247 177 169 173 159 154 170 165 158 158 166 161 169 194 126 132 138 140 142 131 134 145 138 134 135 115 127 133 149 121 115 113 111 102 110 138 134 170 170 175 177 151 152 154
298 273 222 167 144 169 169 177 155 165 155 163 171 157 179 199 163 155 140 142 150 151 152 149 142 139 132 109 124 124 122 115 112 135 108 110 116 111 159 174 178 162 148 147 150
267 278 298 223 168 168 163 171 191 156 159 161 156 146 156 164 185 183 160 154 134 149 156 149 153 134 121 123 122 110 132 113 133 111 131 133 118 108 119 153 180 157 155 150 150
261 275 262 258 310 311 301 274 198 159 219 229 192 174 162 160 158 165 182 140 152 151 140 141 133 145 135 150 120 117 124 119 105 143 135 130 108 89 113 164 163 141 160 155 156
251 265 295 304 309 307 186 187 262 192 216 235 218 202 159 181 166 161 160 177 188 136 133 138 137 108 135 146 129 92 118 122 138 111 140 124 122 125 128 136 143 145 146 140 151
226 251 252 301 250 299 167 206 171 174 270 219 225 210 203 170 181 160 150 160 166 184 187 166 161 125 136 128 144 163 122 145 122 173 180 179 111 154 178 169 143 150 146 151 154
Wind_Speed
19 16 6 13 11 7 4 4 2 4 6 10 10 11 22 14 24 28 25 23 24 24 32 32 33 34 26 17 14 7 9 11 10 8 4 7 5 5 9 9 7 6 9 10 12
31 11 15 3 13 9 4 8 6 5 4 10 9 15 14 14 15 24 27 26 22 26 27 32 29 28 32 23 15 19 9 5 6 5 4 7 2 4 5 5 12 5 5 6 8
32 24 17 15 10 8 1 4 10 4 3 4 11 15 13 15 16 19 24 25 25 24 25 21 25 29 31 32 22 15 13 10 4 6 7 5 4 3 6 2 10 8 7 8 6
35 29 30 15 11 15 9 4 4 8 7 9 8 6 10 12 11 20 17 21 25 22 26 26 20 21 29 32 34 25 23 13 5 1 4 9 4 5 10 11 4 6 2 10 13
20 33 32 29 16 18 10 9 6 7 7 8 10 2 9 7 11 11 15 15 14 23 24 26 29 26 21 30 30 23 28 23 14 5 3 6 8 13 14 7 6 7 11 8 8
39 33 30 35 28 19 17 16 21 17 12 9 6 12 14 7 8 8 11 15 21 20 24 27 19 21 29 28 30 33 23 25 23 11 3 5 10 13 15 17 14 11 10 9 10
20 43 36 38 21 36 18 15 20 20 15 14 9 12 5 11 16 7 8 11 15 14 20 21 23 21 26 30 29 29 33 20 29 27 13 5 3 7 10 12 15 20 18 12 12
26 42 38 43 31 35 25 30 30 24 17 18 15 21 13 8 10 10 3 12 4 15 12 21 21 22 25 26 28 23 30 23 20 27 25 17 10 4 4 8 10 14 15 21 20
41 29 37 39 42 26 23 21 24 29 28 22 19 15 21 10 15 5 7 6 11 12 20 20 20 22 24 20 21 27 21 29 22 19 25 24 25 18 9 6 6 6 6 7 9
42 41 50 49 28 36 39 39 31 32 33 32 20 18 20 26 12 12 5 13 5 8 13 18 19 17 22 25 24 20 17 19 25 23 18 18 21 20 17 16 13 11 10 10 11
53 45 44 22 27 28 41 39 31 29 33 18 37 24 20 20 9 18 5 19 5 17 9 15 16 19 17 20 24 21 19 19 22 24 22 18 19 19 13 12 9 11 9 9 11
61 52 61 52 52 52 34 39 50 44 26 30 44 24 24 20 28 35 32 7 23 7 15 18 12 15 15 21 23 21 19 24 7 22 22 20 18 14 15 14 19 20 17 15 14
63 39 49 51 51 35 52 52 35 50 39 27 27 36 31 36 24 38 18 22 19 10 28 16 11 14 25 18 17 26 21 23 26 23 23 23 19 19 16 17 16 14 13 16 19
53 67 44 64 38 48 42 33 35 39 34 39 32 48 45 40 24 24 32 29 19 19 21 15 32 29 24 15 16 22 6 19 17 27 24 23 18 21 21 22 22 21 20 18 17
59 53 65 47 65 68 57 60 43 37 34 53 53 35 44 32 46 34 28 23 21 26 10 17 26 23 31 10 16 8 17 6 11 20 28 12 26 24 22 25 28 26 28 25 27
73 69 62 50 53 47 47 41 39 51 61 58 54 37 46 39 45 34 38 43 43 20 20 30 19 28 30 14 27 15 19 16 8 27 10 24 27 30 28 24 27 31 33 35 36
80 81 80 74 63 61 69 53 49 66 65 49 50 60 39 58 45 40 54 37 48 31 22 40 39 23 30 12 14 17 21 8 19 20 6 26 24 10 30 30 26 28 31 34 35
83 82 78 70 61 77 66 69 75 70 50 71 46 60 42 59 60 48 55 39 32 31 24 41 36 39 39 33 16 17 26 15 17 12 7 28 31 25 31 30 29 24 28 32 36
85 83 80 81 79 70 68 66 73 73 66 58 61 63 53 61 47 59 39 62 57 55 32 49 50 41 31 9 23 10 24 25 29 15 3 25 20 32 30 34 33 32 28 31 36
84 84 82 81 80 77 75 74 73 72 76 69 69 46 60 64 59 60 54 43 61 59 43 56 32 28 49 49 8 24 26 28 39 13 21 4 40 20 39 36 35 35 32 33 36
67 83 82 78 77 74 73 78 73 75 71 73 73 62 53 51 66 61 55 52 57 46 56 56 47 32 27 13 41 26 32 28 25 24 3 25 29 16 45 30 41 39 37 36 38
44 63 81 76 75 74 74 79 76 73 69 71 69 69 76 57 61 64 66 66 44 46 65 47 49 43 31 37 36 52 32 31 25 17 9 8 38 40 46 48 46 43 42 42 42
40 55 65 76 68 75 78 85 74 75 69 70 72 70 73 78 73 78 67 67 74 73 73 65 53 46 39 27 32 35 37 33 27 50 5 5 22 23 43 47 47 40 46 48 48
49 48 48 71 82 80 79 82 90 74 74 75 74 74 73 73 76 76 68 77 55 71 75 68 70 45 38 38 39 30 41 38 51 22 46 44 28 19 36 43 50 45 46 49 51
47 43 58 64 57 64 70 77 91 75 93 98 91 83 73 76 75 76 77 73 72 71 60 58 52 63 49 67 36 39 42 43 16 61 52 44 6 16 23 56 52 50 52 51 53
49 44 40 40 51 63 88 88 82 88 94 100 98 95 76 90 79 79 79 80 84 60 56 58 56 33 49 63 44 16 42 47 55 32 64 39 42 46 21 45 55 56 58 55 58
64 47 51 41 68 62 77 81 81 81 94 96 101 100 99 81 92 82 82 82 80 84 83 75 77 51 53 49 60 66 47 66 44 60 64 65 33 49 67 65 63 64 65 65 67
Wind_Direction
243 242 185 247 232 212 225 240 253 304 350 330 71 14 37 32 32 28 54 52 37 38 45 44 42 40 42 38 43 98 116 135 168 141 175 143 147 213 220 167 165 198 220 227 240
229 233 241 147 247 229 221 171 228 271 353 109 79 74 44 27 24 31 26 34 29 40 33 43 41 43 39 42 38 33 34 23 183 147 113 192 144 127 16 328 215 158 193 222 238
231 237 203 247 266 238 351 227 206 194 294 4 325 108 59 55 47 29 48 25 31 37 53 35 42 38 36 35 42 31 40 29 14 190 231 217 190 149 351 255 329 173 175 326 207
231 222 235 207 195 255 251 198 280 161 285 293 332 328 79 75 15 52 30 26 25 31 28 27 19 15 34 34 32 41 40 44 74 246 205 233 317 239 302 295 191 195 197 213 227
243 234 231 235 238 208 204 252 257 249 279 311 290 160 117 73 81 48 66 27 76 22 24 19 21 31 7 34 33 37 39 35 29 34 268 263 258 243 257 231 233 232 246 217 228
226 248 231 233 233 233 253 258 255 221 269 203 226 316 300 36 107 36 79 58 24 20 27 22 15 11 31 30 30 29 42 38 35 32 31 249 272 271 255 245 256 251 250 245 253
213 233 249 226 251 233 213 250 218 246 226 222 279 286 237 316 305 110 30 66 43 65 25 22 20 12 21 32 24 33 30 35 29 34 29 48 237 255 269 274 270 253 258 238 238
205 245 237 233 243 241 225 254 250 257 251 228 227 288 296 255 304 312 109 325 28 30 47 8 17 15 12 30 25 32 32 33 32 27 35 34 31 17 298 284 282 281 286 268 266
231 239 247 253 240 231 247 246 260 258 256 262 231 252 283 231 281 237 296 320 345 358 355 8 5 8 9 15 25 21 31 29 26 30 29 33 37 36 41 39 21 3 337 320 336
226 236 244 233 214 229 231 234 245 258 255 256 257 250 275 278 268 292 181 313 49 2 22 357 12 3 6 2 3 17 18 22 21 24 25 22 35 28 25 35 41 31 15 12 8
241 229 242 215 219 226 241 252 238 265 265 233 261 234 278 274 255 291 233 311 313 326 26 344 349 354 358 1 357 355 5 7 13 12 19 25 33 33 19 20 30 27 16 2 357
235 242 230 238 246 242 251 247 244 242 233 240 252 257 240 237 284 289 278 269 298 310 313 324 350 344 352 349 348 353 354 1 9 4 6 11 17 26 27 28 30 28 23 7 357
234 232 239 245 246 230 247 249 246 245 248 248 262 263 248 271 255 281 251 275 277 276 308 299 335 330 331 339 346 338 347 351 352 356 356 353 3 4 5 2 12 19 20 10 6
238 235 240 234 228 250 250 229 253 257 242 261 230 250 256 265 264 250 277 282 276 272 298 281 308 313 323 331 338 336 1 343 352 347 347 345 355 351 352 350 353 355 359 3 358
237 236 236 235 237 239 245 249 252 229 252 238 244 235 264 257 259 269 254 244 270 282 278 275 306 310 309 317 315 333 331 335 0 351 340 328 337 340 350 345 343 347 347 352 351
237 238 238 237 241 239 243 229 231 248 248 258 261 246 252 263 264 265 269 274 276 260 267 291 268 298 303 300 312 311 320 330 344 334 344 357 330 330 332 344 340 340 341 339 342
237 236 237 238 238 237 240 243 240 247 250 252 257 257 257 248 263 252 260 267 269 267 261 284 284 274 296 293 288 296 313 182 323 332 357 330 360 237 319 331 338 332 337 336 336
237 236 235 237 238 239 237 237 238 236 245 240 240 251 251 248 247 262 261 253 241 268 254 280 285 286 288 293 284 295 307 295 318 332 23 329 314 312 317 314 315 329 332 331 327
236 235 235 234 236 234 236 237 241 237 244 246 247 252 255 246 251 256 251 262 264 263 248 274 278 282 284 279 287 189 294 307 313 326 36 342 357 309 309 313 312 309 323 323 323
235 235 235 235 233 236 239 241 239 236 238 240 245 239 247 254 257 258 260 252 263 263 267 272 262 256 282 283 233 275 287 299 304 206 327 325 325 332 308 307 309 311 312 319 322
239 234 233 233 233 234 236 239 239 243 240 240 241 240 241 245 254 255 256 259 261 256 266 269 270 259 259 219 280 264 280 289 299 308 355 325 330 322 311 307 310 309 309 313 315
245 237 232 235 235 233 236 237 237 236 236 237 237 237 238 236 249 255 255 257 251 255 263 262 259 266 258 276 275 280 263 278 294 320 217 78 313 318 298 302 305 306 315 315 316
246 239 234 234 231 235 235 237 238 239 237 240 240 236 241 237 244 247 253 251 253 254 256 256 263 264 260 261 264 268 274 279 292 294 296 347 334 327 297 294 295 302 312 315 316
242 239 236 233 236 236 236 238 236 238 240 242 238 236 238 240 239 241 241 249 248 254 252 257 259 257 261 262 268 276 277 283 290 303 294 300 289 313 317 289 294 301 301 307 311
240 240 233 229 222 214 214 222 232 236 229 227 237 241 241 240 241 242 242 249 245 253 254 258 253 264 258 269 271 277 270 273 306 289 289 294 341 277 312 294 296 312 301 304 304
239 238 238 228 222 216 233 234 223 233 229 226 229 233 240 242 242 242 244 245 245 249 246 254 256 253 258 269 255 248 266 271 283 300 288 284 305 306 293 303 304 305 303 308 304
231 235 233 228 227 219 234 230 235 235 221 229 227 230 233 241 241 242 246 245 246 248 249 251 256 251 254 256 270 268 269 277 286 275 278 278 309 289 287 292 305 301 305 307 306